Location: Solon
(41.3849°N, 81.4081°W)
Time: 00:43:43
(UTC-04:00)

CZ-2C R/B - Visible Passes

Search period start: 27 August 2016 00:00
Search period end: 06 September 2016 00:00
Orbit: 704 x 909 km, 98.2° (Epoch: 26 August)

Date Brightness Start Highest point End Pass type
(mag) Time Alt. Az. Time Alt. Az. Time Alt. Az.
27 Aug 5.3 01:39:03 20° N 01:39:03 20° N 01:40:34 10° N visible
28 Aug 5.4 01:14:04 18° NNE 01:14:04 18° NNE 01:15:33 10° N visible
29 Aug 5.5 00:49:05 15° NNE 00:49:05 15° NNE 00:50:16 10° NNE visible
29 Aug 5.6 02:30:10 13° NNW 02:30:10 13° NNW 02:30:43 10° NNW visible
30 Aug 5.7 00:24:07 11° NE 00:24:07 11° NE 00:24:29 10° NNE visible
30 Aug 5.5 02:05:11 16° NNW 02:05:11 16° NNW 02:06:12 10° NNW visible
31 Aug 5.5 01:40:12 18° N 01:40:12 18° N 01:41:26 10° N visible
01 Sep 5.5 01:15:13 17° N 01:15:13 17° N 01:16:27 10° N visible
02 Sep 5.6 00:50:14 14° NNE 00:50:14 14° NNE 00:51:13 10° NNE visible
02 Sep 5.7 02:31:19 11° NNW 02:31:19 11° NNW 02:31:34 10° NNW visible
03 Sep 5.8 00:25:16 11° NNE 00:25:16 11° NNE 00:25:32 10° NNE visible
03 Sep 5.6 02:06:20 14° NNW 02:06:20 14° NNW 02:07:04 10° NNW visible
04 Sep 5.6 01:41:21 16° N 01:41:21 16° N 01:42:20 10° N visible
05 Sep 5.7 01:16:23 15° N 01:16:23 15° N 01:17:23 10° N visible
